STARLINK-34600

Last updated on Sat Jul 19 2025 00:02:08 GMT+0000 (Coordinated Universal Time)

1 64699U 25142D 25199.58335648 -.01248155 00000+0 -21600-1 0 9993 2 64699 69.9999 194.6641 0004026 276.9106 159.9056 15.53414938 4160
UTC large
Height (km)
Speed (km/s)
/
Latitude / Longitude
Inclination (degrees)
Orbital Period (minutes)
Azimuth
Elevation
Range (km)
Doppler Factor

Next 0 passes for location: London (51.5072 / 0.1276)

Sorry there are no passes over London.